TimePDT,TemperatureF,Dew PointF,Humidity,Sea Level PressureIn,VisibilityMPH,Wind Direction,Wind SpeedMPH,Gust SpeedMPH,PrecipitationIn,Events,Conditions,WindDirDegrees,DateUTC
12:55 AM,48.0,35.1,61,30.09,10.0,Calm,Calm,-,N/A,,Clear,0,2012-10-15 07:55:00
1:55 AM,50.0,36.0,59,30.06,10.0,Calm,Calm,-,N/A,,Scattered Clouds,0,2012-10-15 08:55:00
2:55 AM,48.9,35.1,59,30.06,10.0,Calm,Calm,-,N/A,,Overcast,0,2012-10-15 09:55:00
3:55 AM,48.0,35.1,61,30.06,10.0,SE,3.5,-,N/A,,Overcast,130,2012-10-15 10:55:00
4:55 AM,50.0,37.9,63,30.07,10.0,Calm,Calm,-,N/A,,Overcast,0,2012-10-15 11:55:00
5:55 AM,50.0,36.0,59,30.08,10.0,Calm,Calm,-,N/A,,Overcast,0,2012-10-15 12:55:00
6:55 AM,50.0,36.0,59,30.11,10.0,Calm,Calm,-,N/A,,Overcast,0,2012-10-15 13:55:00
7:55 AM,50.0,39.9,68,30.11,10.0,ESE,4.6,-,N/A,,Mostly Cloudy,110,2012-10-15 14:55:00
8:55 AM,53.1,39.9,61,30.12,10.0,Calm,Calm,-,N/A,,Clear,0,2012-10-15 15:55:00
9:55 AM,57.9,41.0,53,30.13,10.0,Calm,Calm,-,N/A,,Overcast,0,2012-10-15 16:55:00
10:55 AM,59.0,43.0,55,30.14,10.0,Calm,Calm,-,0.00,Rain,Light Rain,0,2012-10-15 17:55:00
11:55 AM,63.0,39.0,41,30.13,10.0,ENE,3.5,-,0.00,,Overcast,60,2012-10-15 18:55:00
12:55 PM,66.0,39.0,37,30.09,10.0,Calm,Calm,-,N/A,,Partly Cloudy,0,2012-10-15 19:55:00
1:55 PM,70.0,39.9,33,30.04,10.0,SE,4.6,-,N/A,,Clear,130,2012-10-15 20:55:00
2:55 PM,71.1,39.9,32,30.02,10.0,South,6.9,-,N/A,,Clear,190,2012-10-15 21:55:00
3:55 PM,72.0,41.0,33,30.01,10.0,WSW,9.2,-,N/A,,Partly Cloudy,240,2012-10-15 22:55:00
4:55 PM,71.1,42.1,35,29.97,10.0,SW,10.4,-,N/A,,Clear,230,2012-10-15 23:55:00
5:55 PM,66.9,45.0,45,29.97,10.0,WSW,9.2,-,N/A,,Clear,250,2012-10-16 00:55:00
6:55 PM,64.9,45.0,48,29.97,10.0,WSW,9.2,-,N/A,,Clear,240,2012-10-16 01:55:00
7:55 PM,64.0,46.0,52,29.99,10.0,WSW,9.2,-,N/A,,Partly Cloudy,250,2012-10-16 02:55:00
8:55 PM,63.0,48.0,58,30.01,10.0,WSW,9.2,-,N/A,,Overcast,250,2012-10-16 03:55:00
9:55 PM,61.0,48.9,64,29.99,10.0,WSW,6.9,-,N/A,,Overcast,240,2012-10-16 04:55:00
10:55 PM,57.9,48.0,70,29.98,10.0,SSW,5.8,-,N/A,,Partly Cloudy,210,2012-10-16 05:55:00
11:55 PM,60.1,50.0,69,29.94,10.0,South,5.8,-,N/A,,Mostly Cloudy,190,2012-10-16 06:55:00